Regional Weather Roundup
Issued by NWS State College, PA

Home | Current Version | Previous Version | Text Only | Print | Product List | Glossary Off
Versions: 1 2 3 4 5 6 7 8 9 10 11 12 13 14 15 16 17 18 19 20 21 22 23 24 25 26 27 28 29 30 31 32 33 34 35 36 37 38 39 40 41 42 43 44 45 46 47 48 49 50

000
ASUS41 KCTP 061210
RWRCTP

REGIONAL WEATHER ROUNDUP
NATIONAL WEATHER SERVICE STATE COLLEGE PA
700 AM EST SAT FEB 06 2016

Note: "fair" indicates few or no clouds below 12,000 feet with no
significant weather and/or obstructions to visibility.

* = STATION THAT DOES NOT REPORT PRECIPITATION /E.G. RAIN...SNOW...ETC/
    THUNDER OR FOG.

PAZ002>004-007>009-013>016-020>023-029>032-061300-
WESTERN PENNSYLVANIA

CITY           SKY/WX    TMP DP  RH WIND       PRES   REMARKS
ERIE           MOCLDY    32  22  66 W8        30.26R
MEADVILLE      PTCLDY    29  17  61 SW8       30.23S
FRANKLIN*      CLOUDY    28  18  64 SW7       30.26S
NEW CASTLE     CLOUDY    31  19  61 SW3       30.29R
BEAVER COUNTY  NOT AVBL
BUTLER*        CLOUDY    28  16  59 S7        30.32R
PITTSBURGH INT CLOUDY    31  15  52 S7        30.29S
PITTSBURGH     CLOUDY    29  17  61 S9        30.29S
INDIANA*       CLOUDY    28  19  69 SW6       30.33R
LATROBE        MOCLDY    25  18  74 SW7       30.33R
WASHINGTON CO* CLOUDY    28  18  64 S5        30.31S
$$

PAZ004>006-010>012-017>019-024>028-033>037-041-042-045-046-049>053-061300-
CENTRAL PENNSYLVANIA

CITY           SKY/WX    TMP DP  RH WIND       PRES   REMARKS
BRADFORD       CLOUDY    25  15  66 VRB7      30.20S
DUBOIS         CLOUDY    27  15  61 SW6       30.24S
CLEARFIELD     CLOUDY    22  17  81 SW5       30.29S
JOHNSTOWN      CLOUDY    24  12  60 S8        30.26S
ALTOONA        CLOUDY    23  15  71 S5        30.32S
STATE COLLEGE  CLOUDY    23  18  80 SW6       30.32S
WILLIAMSPORT   CLOUDY    22  17  81 CALM      30.37R
SELINSGROVE    CLOUDY    20  17  88 CALM      30.39R
FT INDIANTOWN  CLOUDY    21  20  98 SW1       30.39R
CAPITAL CITY   CLOUDY    24  16  71 W3        30.41R
HARRISBURG     CLOUDY    26  19  74 E3        30.40R
YORK           CLOUDY    19  17  92 CALM      30.40R
$$

PAZ038>040-043-044-047-048-054-055-060>062-067>071-061300-
EASTERN PENNSYLVANIA

CITY           SKY/WX    TMP DP  RH WIND       PRES   REMARKS
SCRANTON       CLOUDY    23  16  74 CALM      30.34R
MOUNT POCONO   CLOUDY    20  14  77 W3        30.28R
ALLENTOWN      PTCLDY    21  16  81 CALM      30.40R
QUAKERTOWN*    CLOUDY    18  16  93 CALM      30.41R
READING        CLOUDY    23  18  81 CALM      30.40R
LANCASTER      PTCLDY    22  18  85 CALM      30.41R
COATESVILLE    CLOUDY    25  19  80 CALM      30.41R
POTTSTOWN      CLOUDY    20  18  92 CALM      30.43R
BLUE BELL        N/A     23  21  93 CALM      30.41R
DOYLESTOWN     CLOUDY    22  18  85 CALM      30.40R
WILLOW GROVE   NOT AVBL
NORTH PHILA    CLOUDY    24  20  84 CALM      30.44R
PHILADELPHIA   CLOUDY    29  22  75 SW5       30.44R
$$



USA.gov is the U.S. government's official web portal to all federal, state and local government web resources and services.